Погода в Арсеньево

Россия / Тульская область     53°44′11″N   36°39′51″E
темп.,
°C
ветер,
м/с
пор.,
м/с
влажн.,
%
обл.,
%
осадки,
мм/ч
давл.,
гПа
погр.,
м
15 мая, сб
сб1500:00+14юв47954 0.6 1009111
03:00+14ю3494100 0.6 100850
06:00+14ю36960 0.0 1008122
09:00+18ююз698397 0.3 1009537
12:00+20ююз686694 0.2 10101353
15:00+20ююз796010 0.3 10091712
18:00+18ююз7117582 0.7 1010916
21:00+14ю6139095 1.4 1010426
16 мая, вс
вс1600:00+12ююз411955 0.0 1012250
03:00+11ююз410950 0.0 1012221
06:00+11ююз410935 0.0 1013250
09:00+16ююз58785 0.0 1014651
12:00+19ююз69621 0.0 10141559
15:00+20юз67580 0.0 10141601
18:00+20юз356959 0.0 1014729
21:00+15ююз117995 0.0 101411
17 мая, пн
пн1700:00+14вюв228292 0.0 101418
03:00+13в468740 0.0 101482
06:00+14в4119146 0.8 1013255
09:00+19в7107870 0.8 1012450
12:00+23вюв710619 0.0 1011803
15:00+25вюв711605 0.0 10091108
18:00+23вюв713665 0.0 1008722
21:00+19вюв6167699 0.0 1008450
18 мая, вт
вт1800:00+18юв61579100 0.0 1007396
03:00+16юв5128298 0.0 1006271
06:00+15юв51285100 0.0 1006307
09:00+20юв7117875 0.0 1005622
12:00+22ююв8126886 0.0 10051321
15:00+21ююв8137090 0.0 10051466
18:00+19ю712805 0.6 10051037
21:00+16ююв5119019 0.7 1006326
19 мая, ср
ср1900:00+14ююв5119495 0.0 1005283
03:00+14юв4119499 0.0 1004259
06:00+14юв51293100 0.7 1003393
09:00+15ююв71393100 1.6 1002723
12:00+13ю51094100 2.8 1002655
15:00+16ю81080100 4.3 10011031
18:00+13зюз7991100 3.7 1002750
21:00+10юз61293100 4.0 1006637